View from above orbital plane
|
View from above satellite
|
Ground track
|
The orbit data is extracted from the following two-line orbital elements,
1 107U 61013A 21101.19856263 .00000307 00000-0 19607-4 0 9991
2 107 28.7912 299.6407 0545945 302.8861 52.0309 14.09172824 7819
Epoch (UTC): | 11 April 2021 04:45:55 |
Eccentricity: | 0.0545945 |
inclination: | 28.7912° |
perigee height: | 467 km |
apogee height: | 1257 km |
right ascension of ascending node: | 299.6407° |
argument of perigee: | 302.8861° |
revolutions per day: | 14.09172824 |
mean anomaly at epoch: | 52.0309° |
orbit number at epoch: | 781 |
The dashed part of the orbit path shows where the satellite is in the earth's shadow,
|
|